| time (UTC) | temp F | wind direction | speed MPH | gust MPH | rain 1hr in | rain 24hr in | rain mn in | humidity % | barometer mb |
| 20260905120523 | 74 | 182 | 2.0 | 3.0 | 0.00 | 0.01 | 0.00 | 99 | 1015.1 |
| 20260905120150 | 74 | 189 | 2.0 | 3.0 | 0.00 | 0.01 | 0.00 | 99 | 1015.0 |
| 20260905115518 | 74 | 177 | 2.0 | 3.0 | 0.00 | 0.01 | 0.00 | 99 | 1015.0 |
| 20260905115024 | 74 | 158 | 2.0 | 3.0 | 0.00 | 0.01 | 0.00 | 99 | 1015.0 |
| 20260905114531 | 74 | 146 | 2.0 | 3.0 | 0.00 | 0.01 | 0.00 | 99 | 1015.0 |
| 20260905114019 | 74 | 154 | 2.0 | 3.0 | 0.00 | 0.01 | 0.00 | 99 | 1015.0 |
| 20260905113525 | 74 | 143 | 2.0 | 3.0 | 0.00 | 0.01 | 0.00 | 99 | 1015.0 |
| 20260905113032 | 74 | 157 | 2.0 | 3.0 | 0.00 | 0.01 | 0.00 | 99 | 1015.0 |
| 20260905112600 | 75 | 156 | 2.0 | 4.0 | 0.00 | 0.01 | 0.00 | 99 | 1014.8 |
| 20260905112026 | 75 | 176 | 3.0 | 4.0 | 0.00 | 0.01 | 0.00 | 99 | 1014.8 |
| 20260905111553 | 75 | 183 | 2.0 | 3.0 | 0.00 | 0.01 | 0.00 | 99 | 1014.8 |
| 20260905111021 | 75 | 187 | 1.0 | 3.0 | 0.00 | 0.01 | 0.00 | 98 | 1014.7 |
| 20260905110548 | 75 | 172 | 3.0 | 4.0 | 0.00 | 0.01 | 0.00 | 98 | 1014.7 |
| 20260905110016 | 75 | 183 | 3.0 | 4.0 | 0.00 | 0.01 | 0.00 | 98 | 1014.6 |
| 20260905105523 | 75 | 182 | 2.0 | 3.0 | 0.00 | 0.01 | 0.00 | 98 | 1014.6 |
| 20260905105029 | 75 | 175 | 3.0 | 5.0 | 0.00 | 0.01 | 0.00 | 98 | 1014.6 |
| 20260905104517 | 75 | 179 | 2.0 | 4.0 | 0.00 | 0.01 | 0.00 | 98 | 1014.6 |
| 20260905104024 | 75 | 196 | 2.0 | 5.0 | 0.00 | 0.01 | 0.00 | 98 | 1014.6 |
| 20260905103530 | 75 | 194 | 2.0 | 3.0 | 0.00 | 0.01 | 0.00 | 98 | 1014.7 |
| 20260905103018 | 75 | 186 | 1.0 | 3.0 | 0.00 | 0.01 | 0.00 | 98 | 1014.7 |
| 20260905102525 | 75 | 170 | 2.0 | 4.0 | 0.00 | 0.01 | 0.00 | 98 | 1014.7 |
| 20260905102031 | 75 | 188 | 1.0 | 3.0 | 0.00 | 0.01 | 0.00 | 98 | 1014.7 |
| 20260905101519 | 75 | 186 | 2.0 | 3.0 | 0.00 | 0.01 | 0.00 | 98 | 1014.8 |
| 20260905101026 | 75 | 195 | 1.0 | 3.0 | 0.00 | 0.01 | 0.00 | 98 | 1014.8 |
| 20260905100532 | 75 | 203 | 0.0 | 2.0 | 0.00 | 0.01 | 0.00 | 98 | 1014.8 |
| 20260905100021 | 75 | 0.0 | 0.0 | 0.00 | 0.01 | 0.00 | 97 | 1014.7 | |
| 20260905095527 | 75 | 0.0 | 0.0 | 0.00 | 0.01 | 0.00 | 97 | 1014.7 | |
| 20260905095015 | 75 | 0.0 | 0.0 | 0.00 | 0.01 | 0.00 | 97 | 1014.7 | |
| 20260905094542 | 75 | 193 | 2.0 | 4.0 | 0.00 | 0.01 | 0.00 | 96 | 1014.6 |
| 20260905094028 | 75 | 202 | 2.0 | 4.0 | 0.00 | 0.01 | 0.00 | 96 | 1014.6 |
| 20260905093537 | 75 | 179 | 3.0 | 5.0 | 0.00 | 0.01 | 0.00 | 96 | 1014.6 |
| 20260905093023 | 75 | 189 | 3.0 | 4.0 | 0.00 | 0.01 | 0.00 | 96 | 1014.6 |
| 20260905092530 | 76 | 206 | 3.0 | 4.0 | 0.00 | 0.01 | 0.00 | 96 | 1014.6 |
| 20260905092018 | 76 | 222 | 2.0 | 4.0 | 0.00 | 0.01 | 0.00 | 95 | 1014.6 |
| 20260905091544 | 76 | 209 | 3.0 | 4.0 | 0.00 | 0.01 | 0.00 | 95 | 1014.7 |
| 20260905091051 | 76 | 195 | 3.0 | 5.0 | 0.00 | 0.01 | 0.00 | 95 | 1014.7 |
| 20260905090519 | 76 | 205 | 3.0 | 4.0 | 0.00 | 0.01 | 0.00 | 94 | 1014.8 |
| 20260905090026 | 76 | 186 | 3.0 | 4.0 | 0.00 | 0.01 | 0.00 | 94 | 1014.8 |
| 20260905085532 | 76 | 184 | 4.0 | 6.0 | 0.00 | 0.01 | 0.00 | 94 | 1014.8 |
| 20260905085040 | 76 | 192 | 4.0 | 6.0 | 0.00 | 0.01 | 0.00 | 94 | 1014.8 |
| 20260905084607 | 76 | 200 | 3.0 | 5.0 | 0.00 | 0.01 | 0.00 | 93 | 1014.7 |
| 20260905084015 | 76 | 162 | 4.0 | 6.0 | 0.00 | 0.01 | 0.00 | 93 | 1014.7 |
| 20260905083522 | 76 | 174 | 5.0 | 7.0 | 0.00 | 0.01 | 0.00 | 93 | 1014.7 |
| 20260905083028 | 76 | 187 | 5.0 | 8.0 | 0.00 | 0.01 | 0.00 | 93 | 1014.7 |
| 20260905082516 | 76 | 197 | 5.0 | 7.0 | 0.00 | 0.01 | 0.00 | 93 | 1014.8 |
| 20260905082043 | 76 | 192 | 4.0 | 6.0 | 0.00 | 0.01 | 0.00 | 92 | 1014.8 |
| 20260905081529 | 77 | 218 | 5.0 | 8.0 | 0.00 | 0.01 | 0.00 | 92 | 1014.9 |
| 20260905081017 | 77 | 187 | 5.0 | 7.0 | 0.00 | 0.01 | 0.00 | 92 | 1014.9 |
| 20260905080544 | 77 | 204 | 5.0 | 7.0 | 0.00 | 0.01 | 0.00 | 92 | 1014.9 |
| 20260905080030 | 77 | 197 | 4.0 | 6.0 | 0.00 | 0.01 | 0.00 | 91 | 1015.0 |
| 20260905075519 | 77 | 147 | 4.0 | 8.0 | 0.00 | 0.01 | 0.00 | 91 | 1015.0 |
| 20260905075026 | 77 | 172 | 5.0 | 8.0 | 0.00 | 0.01 | 0.00 | 91 | 1015.1 |
| 20260905074532 | 77 | 174 | 4.0 | 6.0 | 0.00 | 0.01 | 0.00 | 91 | 1015.1 |
| 20260905074040 | 77 | 180 | 4.0 | 6.0 | 0.00 | 0.01 | 0.00 | 90 | 1015.1 |
| 20260905073527 | 77 | 171 | 4.0 | 7.0 | 0.00 | 0.01 | 0.00 | 90 | 1015.1 |
| 20260905073033 | 77 | 190 | 4.0 | 6.0 | 0.00 | 0.01 | 0.00 | 90 | 1015.1 |
| 20260905072521 | 77 | 138 | 4.0 | 6.0 | 0.00 | 0.01 | 0.00 | 90 | 1015.3 |
| 20260905072108 | 77 | 168 | 4.0 | 5.0 | 0.00 | 0.01 | 0.00 | 89 | 1015.3 |
| 20260905071556 | 78 | 176 | 5.0 | 7.0 | 0.00 | 0.01 | 0.00 | 89 | 1015.3 |
| 20260905071022 | 78 | 176 | 5.0 | 7.0 | 0.00 | 0.01 | 0.00 | 89 | 1015.3 |
| 20260905070529 | 78 | 189 | 4.0 | 6.0 | 0.00 | 0.01 | 0.00 | 89 | 1015.3 |
| 20260905070017 | 78 | 176 | 5.0 | 7.0 | 0.00 | 0.01 | 0.00 | 88 | 1015.3 |
| 20260905065523 | 78 | 183 | 5.0 | 6.0 | 0.00 | 0.01 | 0.00 | 88 | 1015.3 |
| 20260905065030 | 78 | 173 | 5.0 | 9.0 | 0.00 | 0.01 | 0.00 | 88 | 1015.3 |
| 20260905064518 | 78 | 153 | 4.0 | 7.0 | 0.00 | 0.01 | 0.00 | 87 | 1015.3 |
| 20260905064025 | 78 | 182 | 6.0 | 9.0 | 0.00 | 0.01 | 0.00 | 87 | 1015.3 |
| 20260905063531 | 78 | 177 | 5.0 | 8.0 | 0.00 | 0.01 | 0.00 | 86 | 1015.3 |
| 20260905063039 | 78 | 174 | 6.0 | 8.0 | 0.00 | 0.01 | 0.00 | 86 | 1015.3 |
| 20260905062526 | 78 | 164 | 5.0 | 7.0 | 0.00 | 0.01 | 0.00 | 86 | 1015.4 |
| 20260905062032 | 78 | 151 | 4.0 | 6.0 | 0.00 | 0.01 | 0.00 | 85 | 1015.5 |
| 20260905061521 | 78 | 174 | 5.0 | 8.0 | 0.00 | 0.01 | 0.00 | 84 | 1015.4 |
| 20260905061027 | 78 | 145 | 5.0 | 9.0 | 0.00 | 0.01 | 0.00 | 84 | 1015.3 |
| 20260905060516 | 79 | 153 | 4.0 | 6.0 | 0.00 | 0.01 | 0.00 | 84 | 1015.3 |
| 20260905060022 | 79 | 167 | 4.0 | 7.0 | 0.00 | 0.01 | 0.00 | 83 | 1015.5 |
| 20260905055529 | 79 | 162 | 5.0 | 7.0 | 0.00 | 0.01 | 0.00 | 83 | 1015.5 |
| 20260905055016 | 79 | 164 | 4.0 | 8.0 | 0.00 | 0.01 | 0.00 | 82 | 1015.4 |
| 20260905054603 | 79 | 158 | 5.0 | 7.0 | 0.00 | 0.01 | 0.00 | 82 | 1015.3 |
| 20260905054029 | 79 | 156 | 4.0 | 7.0 | 0.00 | 0.01 | 0.00 | 82 | 1015.4 |
| 20260905053518 | 79 | 166 | 5.0 | 7.0 | 0.00 | 0.01 | 0.00 | 81 | 1015.5 |
| 20260905053024 | 79 | 161 | 5.0 | 8.0 | 0.00 | 0.01 | 0.00 | 81 | 1015.5 |
| 20260905052531 | 79 | 162 | 5.0 | 7.0 | 0.00 | 0.01 | 0.00 | 80 | 1015.5 |
| 20260905052019 | 80 | 178 | 5.0 | 8.0 | 0.00 | 0.01 | 0.00 | 80 | 1015.5 |
| 20260905051525 | 80 | 155 | 5.0 | 8.0 | 0.00 | 0.01 | 0.00 | 79 | 1015.5 |
| 20260905051032 | 80 | 165 | 5.0 | 9.0 | 0.00 | 0.01 | 0.00 | 79 | 1015.5 |
| 20260905050520 | 80 | 136 | 6.0 | 7.0 | 0.00 | 0.01 | 0.00 | 79 | 1015.5 |
| 20260905050026 | 80 | 172 | 4.0 | 8.0 | 0.00 | 0.01 | 0.00 | 79 | 1015.6 |
| 20260905045553 | 80 | 182 | 5.0 | 9.0 | 0.00 | 0.01 | 0.01 | 79 | 1015.6 |
| 20260905045021 | 80 | 140 | 5.0 | 8.0 | 0.00 | 0.01 | 0.01 | 78 | 1015.5 |
| 20260905044608 | 80 | 154 | 6.0 | 10.0 | 0.00 | 0.01 | 0.01 | 78 | 1015.5 |
| 20260905044016 | 80 | 145 | 7.0 | 11.0 | 0.00 | 0.01 | 0.01 | 78 | 1015.5 |
| 20260905043522 | 80 | 153 | 6.0 | 10.0 | 0.00 | 0.01 | 0.01 | 77 | 1015.5 |
| 20260905043029 | 80 | 132 | 7.0 | 9.0 | 0.00 | 0.01 | 0.01 | 77 | 1015.5 |
| 20260905042517 | 80 | 159 | 7.0 | 9.0 | 0.00 | 0.01 | 0.01 | 76 | 1015.3 |
| 20260905042023 | 81 | 142 | 3.0 | 4.0 | 0.00 | 0.01 | 0.01 | 76 | 1015.3 |
| 20260905041530 | 81 | 147 | 3.0 | 5.0 | 0.00 | 0.01 | 0.01 | 75 | 1015.3 |
| 20260905041018 | 81 | 164 | 3.0 | 4.0 | 0.00 | 0.01 | 0.01 | 75 | 1015.3 |
| 20260905040525 | 81 | 175 | 3.0 | 4.0 | 0.00 | 0.01 | 0.01 | 75 | 1015.3 |
| 20260905040031 | 81 | 158 | 4.0 | 7.0 | 0.00 | 0.01 | 0.01 | 74 | 1015.3 |
| 20260905035519 | 81 | 153 | 4.0 | 7.0 | 0.00 | 0.01 | 0.01 | 74 | 1015.3 |
| 20260905035026 | 81 | 153 | 5.0 | 8.0 | 0.00 | 0.01 | 0.01 | 74 | 1015.3 |
| 20260905034533 | 81 | 164 | 5.0 | 7.0 | 0.00 | 0.01 | 0.01 | 73 | 1015.3 |
| 20260905034021 | 81 | 145 | 5.0 | 8.0 | 0.00 | 0.01 | 0.01 | 73 | 1015.3 |
| 20260905033547 | 81 | 152 | 4.0 | 6.0 | 0.00 | 0.01 | 0.01 | 73 | 1015.3 |
| 20260905033015 | 82 | 140 | 4.0 | 6.0 | 0.00 | 0.01 | 0.01 | 73 | 1015.3 |
| 20260905032522 | 82 | 172 | 5.0 | 7.0 | 0.00 | 0.01 | 0.01 | 73 | 1015.3 |
| 20260905032048 | 82 | 135 | 4.0 | 5.0 | 0.00 | 0.01 | 0.01 | 73 | 1015.3 |
| 20260905031536 | 82 | 166 | 5.0 | 7.0 | 0.00 | 0.01 | 0.01 | 73 | 1015.1 |
| 20260905031023 | 82 | 153 | 5.0 | 7.0 | 0.00 | 0.01 | 0.01 | 73 | 1015.0 |
| 20260905030529 | 82 | 148 | 5.0 | 7.0 | 0.00 | 0.01 | 0.01 | 73 | 1015.0 |
| 20260905030017 | 82 | 137 | 5.0 | 9.0 | 0.00 | 0.01 | 0.01 | 73 | 1014.8 |
| 20260905025523 | 82 | 144 | 5.0 | 6.0 | 0.00 | 0.01 | 0.01 | 73 | 1014.8 |
| 20260905025030 | 82 | 146 | 4.0 | 6.0 | 0.00 | 0.01 | 0.01 | 73 | 1014.8 |
| 20260905024518 | 82 | 136 | 5.0 | 6.0 | 0.00 | 0.01 | 0.01 | 73 | 1014.7 |
| 20260905024025 | 82 | 156 | 4.0 | 6.0 | 0.00 | 0.01 | 0.01 | 73 | 1014.7 |
| 20260905023531 | 82 | 135 | 4.0 | 5.0 | 0.00 | 0.01 | 0.01 | 73 | 1014.7 |
| 20260905023019 | 82 | 154 | 4.0 | 5.0 | 0.00 | 0.01 | 0.01 | 73 | 1014.7 |
| 20260905022526 | 83 | 151 | 3.0 | 5.0 | 0.00 | 0.01 | 0.01 | 72 | 1014.6 |
| 20260905022052 | 83 | 163 | 3.0 | 4.0 | 0.00 | 0.01 | 0.01 | 72 | 1014.6 |
| 20260905021521 | 83 | 164 | 4.0 | 6.0 | 0.00 | 0.01 | 0.01 | 72 | 1014.5 |
| 20260905021047 | 83 | 154 | 4.0 | 5.0 | 0.00 | 0.01 | 0.01 | 71 | 1014.4 |
| 20260905020515 | 83 | 169 | 4.0 | 7.0 | 0.00 | 0.01 | 0.01 | 71 | 1014.4 |
| 20260905020022 | 83 | 176 | 5.0 | 7.0 | 0.00 | 0.01 | 0.01 | 71 | 1014.4 |
| 20260905015528 | 83 | 142 | 6.0 | 8.0 | 0.00 | 0.01 | 0.01 | 71 | 1014.4 |
| 20260905015036 | 84 | 151 | 6.0 | 8.0 | 0.00 | 0.01 | 0.01 | 70 | 1014.3 |
| 20260905014543 | 84 | 172 | 6.0 | 11.0 | 0.00 | 0.01 | 0.01 | 70 | 1014.2 |
| 20260905014029 | 84 | 137 | 4.0 | 6.0 | 0.00 | 0.01 | 0.01 | 69 | 1014.2 |
| 20260905013517 | 84 | 160 | 5.0 | 7.0 | 0.00 | 0.01 | 0.01 | 68 | 1014.1 |
| 20260905013024 | 84 | 132 | 5.0 | 7.0 | 0.00 | 0.01 | 0.01 | 67 | 1014.1 |
| 20260905012530 | 84 | 143 | 5.0 | 9.0 | 0.00 | 0.01 | 0.01 | 67 | 1014.1 |
| 20260905012018 | 84 | 177 | 6.0 | 10.0 | 0.00 | 0.01 | 0.01 | 66 | 1014.1 |
| 20260905011525 | 85 | 172 | 5.0 | 6.0 | 0.00 | 0.01 | 0.01 | 66 | 1014.0 |
| 20260905011031 | 85 | 144 | 5.0 | 6.0 | 0.00 | 0.01 | 0.01 | 66 | 1013.9 |
| 20260905010519 | 85 | 157 | 6.0 | 10.0 | 0.00 | 0.01 | 0.01 | 66 | 1013.9 |
| 20260905010046 | 85 | 146 | 5.0 | 7.0 | 0.00 | 0.01 | 0.01 | 66 | 1013.8 |
| 20260905005552 | 85 | 143 | 5.0 | 7.0 | 0.00 | 0.01 | 0.01 | 66 | 1013.8 |
| 20260905005020 | 85 | 127 | 5.0 | 6.0 | 0.00 | 0.01 | 0.01 | 66 | 1013.7 |
| 20260905004527 | 85 | 148 | 7.0 | 10.0 | 0.00 | 0.01 | 0.01 | 66 | 1013.7 |
| 20260905004015 | 86 | 144 | 6.0 | 8.0 | 0.00 | 0.01 | 0.01 | 66 | 1013.7 |
| 20260905003542 | 86 | 166 | 5.0 | 8.0 | 0.00 | 0.01 | 0.01 | 65 | 1013.6 |
| 20260905003048 | 86 | 169 | 6.0 | 8.0 | 0.00 | 0.01 | 0.01 | 65 | 1013.6 |
| 20260905002516 | 87 | 135 | 8.0 | 12.0 | 0.00 | 0.01 | 0.01 | 64 | 1013.6 |
| 20260905002022 | 87 | 143 | 7.0 | 10.0 | 0.00 | 0.01 | 0.01 | 64 | 1013.6 |
| 20260905001529 | 88 | 128 | 8.0 | 11.0 | 0.00 | 0.01 | 0.01 | 64 | 1013.4 |
| 20260905001037 | 88 | 136 | 8.0 | 11.0 | 0.00 | 0.01 | 0.01 | 62 | 1013.3 |
| 20260905000524 | 89 | 124 | 7.0 | 11.0 | 0.00 | 0.01 | 0.01 | 62 | 1013.3 |
| 20260905000030 | 90 | 125 | 7.0 | 10.0 | 0.00 | 0.01 | 0.01 | 60 | 1013.1 |
| 20260904235519 | 90 | 132 | 7.0 | 10.0 | 0.00 | 0.01 | 0.01 | 59 | 1013.1 |
| 20260904235045 | 91 | 120 | 7.0 | 11.0 | 0.00 | 0.01 | 0.01 | 58 | 1013.1 |
| 20260904234531 | 91 | 127 | 7.0 | 9.0 | 0.00 | 0.01 | 0.01 | 57 | 1013.1 |
| 20260904234039 | 92 | 148 | 6.0 | 9.0 | 0.00 | 0.01 | 0.01 | 51 | 1013.0 |
| 20260904233526 | 92 | 175 | 7.0 | 10.0 | 0.00 | 0.01 | 0.01 | 48 | 1012.9 |
| 20260904233032 | 92 | 157 | 6.0 | 8.0 | 0.00 | 0.01 | 0.01 | 48 | 1012.9 |
| 20260904232521 | 92 | 184 | 9.0 | 11.0 | 0.00 | 0.01 | 0.01 | 46 | 1013.2 |
| 20260904232027 | 92 | 179 | 7.0 | 9.0 | 0.00 | 0.01 | 0.01 | 46 | 1013.2 |
| 20260904231515 | 93 | 182 | 6.0 | 7.0 | 0.00 | 0.01 | 0.01 | 45 | 1013.2 |
| 20260904231042 | 93 | 177 | 6.0 | 9.0 | 0.00 | 0.01 | 0.01 | 45 | 1013.3 |
| 20260904230528 | 93 | 192 | 6.0 | 10.0 | 0.00 | 0.01 | 0.01 | 46 | 1013.3 |
| 20260904230016 | 93 | 202 | 5.0 | 9.0 | 0.00 | 0.01 | 0.01 | 46 | 1013.4 |
| 20260904225523 | 93 | 190 | 6.0 | 10.0 | 0.00 | 0.01 | 0.01 | 46 | 1013.4 |
| 20260904225049 | 93 | 169 | 6.0 | 9.0 | 0.00 | 0.01 | 0.01 | 48 | 1013.3 |
| 20260904224517 | 92 | 183 | 7.0 | 11.0 | 0.00 | 0.01 | 0.01 | 49 | 1013.3 |
| 20260904224044 | 91 | 166 | 6.0 | 9.0 | 0.00 | 0.01 | 0.01 | 49 | 1013.3 |
| 20260904223551 | 93 | 116 | 6.0 | 9.0 | 0.00 | 0.01 | 0.01 | 47 | 1013.5 |
| 20260904223018 | 93 | 136 | 5.0 | 9.0 | 0.00 | 0.01 | 0.01 | 47 | 1013.5 |
| 20260904222525 | 93 | 144 | 7.0 | 8.0 | 0.00 | 0.01 | 0.01 | 48 | 1013.5 |
| 20260904222031 | 93 | 157 | 6.0 | 10.0 | 0.00 | 0.01 | 0.01 | 49 | 1013.5 |
| 20260904221539 | 93 | 132 | 6.0 | 9.0 | 0.00 | 0.01 | 0.01 | 48 | 1013.5 |
| 20260904221026 | 93 | 160 | 7.0 | 10.0 | 0.00 | 0.01 | 0.01 | 48 | 1013.6 |
| 20260904220553 | 93 | 174 | 5.0 | 7.0 | 0.00 | 0.01 | 0.01 | 47 | 1013.6 |
| 20260904220041 | 93 | 160 | 7.0 | 9.0 | 0.00 | 0.01 | 0.01 | 47 | 1013.7 |
| 20260904215527 | 93 | 144 | 7.0 | 8.0 | 0.00 | 0.01 | 0.01 | 48 | 1013.7 |
| 20260904215015 | 93 | 141 | 7.0 | 11.0 | 0.00 | 0.01 | 0.01 | 47 | 1013.8 |
| 20260904214521 | 94 | 136 | 5.0 | 8.0 | 0.00 | 0.01 | 0.01 | 48 | 1013.9 |
| 20260904214028 | 93 | 168 | 6.0 | 8.0 | 0.00 | 0.01 | 0.01 | 47 | 1013.9 |
| 20260904213516 | 94 | 188 | 7.0 | 10.0 | 0.00 | 0.01 | 0.01 | 47 | 1014.0 |
| 20260904213023 | 93 | 147 | 6.0 | 8.0 | 0.00 | 0.01 | 0.01 | 47 | 1014.0 |
| 20260904212529 | 93 | 147 | 6.0 | 9.0 | 0.00 | 0.01 | 0.01 | 47 | 1014.1 |
| 20260904212038 | 93 | 194 | 7.0 | 10.0 | 0.00 | 0.01 | 0.01 | 48 | 1014.1 |
| 20260904211544 | 93 | 160 | 7.0 | 10.0 | 0.00 | 0.01 | 0.01 | 48 | 1014.2 |
| 20260904211030 | 94 | 157 | 9.0 | 13.0 | 0.00 | 0.01 | 0.01 | 46 | 1014.2 |
| 20260904210559 | 93 | 153 | 5.0 | 9.0 | 0.00 | 0.01 | 0.01 | 49 | 1014.2 |
| 20260904210025 | 92 | 131 | 8.0 | 11.0 | 0.00 | 0.01 | 0.01 | 52 | 1014.3 |
| 20260904205531 | 92 | 165 | 9.0 | 11.0 | 0.00 | 0.01 | 0.01 | 53 | 1014.3 |
| 20260904205019 | 93 | 132 | 7.0 | 10.0 | 0.00 | 0.01 | 0.01 | 53 | 1014.3 |
| 20260904204526 | 94 | 143 | 7.0 | 10.0 | 0.00 | 0.01 | 0.01 | 53 | 1014.3 |
| 20260904204032 | 94 | 158 | 7.0 | 11.0 | 0.00 | 0.01 | 0.01 | 54 | 1014.4 |
| 20260904203521 | 94 | 172 | 4.0 | 8.0 | 0.00 | 0.01 | 0.01 | 54 | 1014.6 |
| 20260904203027 | 93 | 142 | 7.0 | 11.0 | 0.00 | 0.01 | 0.01 | 52 | 1014.6 |
| 20260904202515 | 93 | 115 | 8.0 | 10.0 | 0.00 | 0.01 | 0.01 | 52 | 1014.6 |
| 20260904202022 | 93 | 149 | 7.0 | 9.0 | 0.00 | 0.01 | 0.01 | 54 | 1014.6 |
| 20260904201528 | 93 | 154 | 6.0 | 8.0 | 0.00 | 0.01 | 0.01 | 56 | 1014.7 |
| 20260904201037 | 92 | 172 | 7.0 | 11.0 | 0.00 | 0.01 | 0.01 | 57 | 1014.8 |
| 20260904200523 | 93 | 150 | 7.0 | 11.0 | 0.00 | 0.01 | 0.01 | 54 | 1014.8 |
| 20260904200029 | 93 | 162 | 7.0 | 9.0 | 0.00 | 0.01 | 0.01 | 54 | 1014.9 |
| 20260904195518 | 92 | 114 | 6.0 | 10.0 | 0.00 | 0.01 | 0.01 | 56 | 1014.9 |
| 20260904195024 | 91 | 142 | 7.0 | 10.0 | 0.00 | 0.01 | 0.01 | 58 | 1015.0 |
| 20260904194551 | 91 | 131 | 7.0 | 11.0 | 0.00 | 0.01 | 0.01 | 59 | 1015.0 |
| 20260904194018 | 92 | 144 | 8.0 | 10.0 | 0.00 | 0.01 | 0.01 | 60 | 1015.0 |
| 20260904193525 | 92 | 112 | 6.0 | 8.0 | 0.00 | 0.01 | 0.01 | 59 | 1015.1 |
| 20260904193031 | 92 | 180 | 7.0 | 12.0 | 0.00 | 0.01 | 0.01 | 58 | 1015.1 |
| 20260904192520 | 92 | 194 | 7.0 | 11.0 | 0.00 | 0.01 | 0.01 | 58 | 1015.3 |
| 20260904192026 | 92 | 171 | 6.0 | 8.0 | 0.00 | 0.01 | 0.01 | 59 | 1015.3 |
| 20260904191533 | 91 | 168 | 6.0 | 9.0 | 0.00 | 0.01 | 0.01 | 60 | 1015.4 |
| 20260904191021 | 91 | 135 | 6.0 | 9.0 | 0.00 | 0.01 | 0.01 | 59 | 1015.5 |
| 20260904190527 | 90 | 137 | 6.0 | 7.0 | 0.00 | 0.01 | 0.01 | 60 | 1015.5 |
| 20260904190036 | 91 | 168 | 7.0 | 9.0 | 0.00 | 0.01 | 0.01 | 59 | 1015.6 |
| 20260904185522 | 92 | 225 | 7.0 | 9.0 | 0.00 | 0.01 | 0.01 | 59 | 1015.6 |
| 20260904185028 | 90 | 158 | 7.0 | 9.0 | 0.00 | 0.01 | 0.01 | 62 | 1015.7 |
| 20260904184517 | 90 | 147 | 6.0 | 8.0 | 0.00 | 0.01 | 0.01 | 63 | 1015.8 |
| 20260904184023 | 91 | 165 | 6.0 | 8.0 | 0.00 | 0.01 | 0.01 | 60 | 1015.8 |
| 20260904183529 | 90 | 196 | 7.0 | 11.0 | 0.00 | 0.01 | 0.01 | 61 | 1015.8 |
| 20260904183018 | 89 | 158 | 6.0 | 9.0 | 0.00 | 0.01 | 0.01 | 66 | 1015.8 |
| 20260904182524 | 88 | 149 | 6.0 | 9.0 | 0.00 | 0.01 | 0.01 | 65 | 1015.8 |
| 20260904182030 | 88 | 189 | 8.0 | 10.0 | 0.00 | 0.01 | 0.01 | 65 | 1015.8 |
| 20260904181519 | 89 | 181 | 6.0 | 9.0 | 0.00 | 0.01 | 0.01 | 64 | 1015.9 |
| 20260904181025 | 89 | 179 | 7.0 | 8.0 | 0.00 | 0.01 | 0.01 | 64 | 1016.0 |
| 20260904180532 | 88 | 170 | 7.0 | 12.0 | 0.00 | 0.01 | 0.01 | 64 | 1016.0 |
| 20260904180020 | 89 | 169 | 8.0 | 10.0 | 0.00 | 0.01 | 0.01 | 65 | 1016.0 |
| 20260904175526 | 89 | 164 | 6.0 | 11.0 | 0.00 | 0.01 | 0.01 | 65 | 1016.0 |
| 20260904175053 | 90 | 164 | 8.0 | 10.0 | 0.00 | 0.01 | 0.01 | 65 | 1016.2 |
| 20260904174541 | 91 | 131 | 7.0 | 11.0 | 0.00 | 0.01 | 0.01 | 64 | 1016.4 |
| 20260904174027 | 90 | 174 | 6.0 | 9.0 | 0.00 | 0.01 | 0.01 | 65 | 1016.3 |
| 20260904173516 | 90 | 181 | 7.0 | 10.0 | 0.00 | 0.01 | 0.01 | 63 | 1016.3 |
| 20260904173022 | 91 | 172 | 6.0 | 9.0 | 0.00 | 0.01 | 0.01 | 63 | 1016.3 |
| 20260904172529 | 90 | 170 | 7.0 | 10.0 | 0.00 | 0.01 | 0.01 | 64 | 1016.4 |
| 20260904172017 | 91 | 129 | 7.0 | 9.0 | 0.00 | 0.01 | 0.01 | 64 | 1016.5 |
| 20260904171603 | 92 | 196 | 5.0 | 8.0 | 0.00 | 0.01 | 0.01 | 64 | 1016.5 |
| 20260904171030 | 90 | 187 | 4.0 | 7.0 | 0.00 | 0.01 | 0.01 | 66 | 1016.6 |
| 20260904170538 | 90 | 197 | 6.0 | 9.0 | 0.00 | 0.01 | 0.01 | 65 | 1016.5 |
| 20260904170025 | 90 | 200 | 7.0 | 10.0 | 0.00 | 0.01 | 0.01 | 65 | 1016.4 |
| 20260904165531 | 90 | 214 | 7.0 | 9.0 | 0.00 | 0.01 | 0.01 | 66 | 1016.4 |
| 20260904165019 | 88 | 188 | 7.0 | 10.0 | 0.00 | 0.01 | 0.01 | 68 | 1016.3 |
| 20260904164526 | 88 | 205 | 8.0 | 9.0 | 0.00 | 0.01 | 0.01 | 68 | 1016.3 |
| 20260904164032 | 89 | 161 | 6.0 | 9.0 | 0.00 | 0.01 | 0.01 | 68 | 1016.3 |
| 20260904163520 | 88 | 204 | 6.0 | 9.0 | 0.00 | 0.01 | 0.01 | 70 | 1016.4 |
| 20260904162541 | 89 | 184 | 4.0 | 8.0 | 0.00 | 0.01 | 0.01 | 70 | 1016.4 |
| 20260904162108 | 88 | 183 | 5.0 | 7.0 | 0.00 | 0.01 | 0.01 | 71 | 1016.4 |
| 20260904161516 | 88 | 220 | 6.0 | 9.0 | 0.00 | 0.01 | 0.01 | 73 | 1016.4 |
| 20260904161023 | 86 | 236 | 5.0 | 7.0 | 0.00 | 0.01 | 0.01 | 76 | 1016.5 |
| 20260904160529 | 85 | 237 | 5.0 | 8.0 | 0.00 | 0.01 | 0.01 | 78 | 1016.5 |
| 20260904160017 | 84 | 221 | 5.0 | 8.0 | 0.00 | 0.01 | 0.01 | 79 | 1016.4 |
| 20260904155544 | 84 | 207 | 4.0 | 6.0 | 0.00 | 0.01 | 0.01 | 80 | 1016.4 |
| 20260904155030 | 84 | 217 | 5.0 | 8.0 | 0.00 | 0.01 | 0.01 | 79 | 1016.4 |
| 20260904154518 | 84 | 167 | 6.0 | 8.0 | 0.00 | 0.01 | 0.01 | 80 | 1016.4 |
| 20260904154025 | 83 | 211 | 6.0 | 9.0 | 0.00 | 0.01 | 0.01 | 83 | 1016.3 |
| 20260904153531 | 82 | 199 | 6.0 | 8.0 | 0.00 | 0.01 | 0.01 | 85 | 1016.3 |
| 20260904153019 | 82 | 193 | 6.0 | 9.0 | 0.00 | 0.01 | 0.01 | 84 | 1016.3 |
| 20260904152526 | 82 | 212 | 7.0 | 9.0 | 0.00 | 0.01 | 0.01 | 85 | 1016.1 |
| 20260904152032 | 82 | 201 | 7.0 | 11.0 | 0.00 | 0.01 | 0.01 | 87 | 1016.0 |
| 20260904151520 | 81 | 183 | 6.0 | 9.0 | 0.00 | 0.01 | 0.01 | 87 | 1016.0 |
| 20260904151026 | 80 | 204 | 7.0 | 10.0 | 0.00 | 0.01 | 0.01 | 89 | 1016.0 |
| 20260904150533 | 80 | 228 | 6.0 | 9.0 | 0.00 | 0.01 | 0.01 | 90 | 1016.0 |
| 20260904150021 | 79 | 207 | 5.0 | 9.0 | 0.00 | 0.01 | 0.01 | 91 | 1016.2 |
| 20260904145527 | 79 | 180 | 4.0 | 9.0 | 0.00 | 0.01 | 0.01 | 92 | 1016.2 |
| 20260904145015 | 79 | 225 | 6.0 | 9.0 | 0.00 | 0.01 | 0.01 | 92 | 1016.2 |
| 20260904144522 | 79 | 233 | 6.0 | 10.0 | 0.00 | 0.01 | 0.01 | 93 | 1016.2 |
| 20260904144028 | 78 | 201 | 4.0 | 5.0 | 0.00 | 0.01 | 0.01 | 93 | 1016.2 |
| 20260904143516 | 78 | 185 | 6.0 | 9.0 | 0.00 | 0.01 | 0.01 | 93 | 1016.2 |
| 20260904143023 | 78 | 196 | 6.0 | 8.0 | 0.00 | 0.01 | 0.01 | 94 | 1016.2 |
| 20260904142529 | 78 | 207 | 5.0 | 9.0 | 0.00 | 0.01 | 0.01 | 94 | 1016.2 |
| 20260904142017 | 78 | 209 | 5.0 | 8.0 | 0.00 | 0.01 | 0.01 | 94 | 1016.2 |
| 20260904141524 | 78 | 196 | 4.0 | 7.0 | 0.01 | 0.01 | 0.01 | 94 | 1016.2 |
| 20260904141050 | 78 | 203 | 3.0 | 7.0 | 0.01 | 0.01 | 0.01 | 95 | 1016.2 |
| 20260904140518 | 78 | 222 | 5.0 | 7.0 | 0.01 | 0.01 | 0.01 | 96 | 1016.2 |
| 20260904140025 | 77 | 196 | 4.0 | 6.0 | 0.01 | 0.01 | 0.01 | 96 | 1016.2 |
| 20260904135551 | 77 | 205 | 4.0 | 5.0 | 0.01 | 0.01 | 0.01 | 96 | 1016.2 |
| 20260904135019 | 77 | 204 | 3.0 | 6.0 | 0.01 | 0.01 | 0.01 | 96 | 1016.2 |
| 20260904134526 | 77 | 217 | 3.0 | 5.0 | 0.01 | 0.01 | 0.01 | 96 | 1016.2 |
| 20260904134032 | 77 | 212 | 3.0 | 4.0 | 0.01 | 0.01 | 0.01 | 96 | 1016.2 |
| 20260904133520 | 77 | 212 | 3.0 | 4.0 | 0.01 | 0.01 | 0.01 | 96 | 1016.2 |
| 20260904133027 | 77 | 191 | 2.0 | 5.0 | 0.01 | 0.01 | 0.01 | 96 | 1016.2 |
| 20260904132533 | 77 | 208 | 3.0 | 4.0 | 0.01 | 0.01 | 0.01 | 96 | 1016.2 |
| 20260904132021 | 77 | 167 | 2.0 | 5.0 | 0.01 | 0.01 | 0.01 | 95 | 1016.2 |
| 20260904131528 | 77 | 183 | 2.0 | 4.0 | 0.00 | 0.00 | 0.00 | 95 | 1016.2 |
| 20260904131036 | 77 | 205 | 3.0 | 4.0 | 0.00 | 0.00 | 0.00 | 94 | 1016.2 |
| 20260904130523 | 77 | 153 | 3.0 | 5.0 | 0.00 | 0.00 | 0.00 | 93 | 1016.2 |
| 20260904130029 | 77 | 157 | 3.0 | 5.0 | 0.00 | 0.00 | 0.00 | 93 | 1016.2 |
| 20260904125517 | 77 | 222 | 1.0 | 3.0 | 0.00 | 0.00 | 0.00 | 93 | 1016.2 |
| 20260904125024 | 77 | 151 | 3.0 | 5.0 | 0.00 | 0.00 | 0.00 | 93 | 1016.1 |
| 20260904124530 | 77 | 146 | 2.0 | 4.0 | 0.00 | 0.00 | 0.00 | 93 | 1016.0 |
| 20260904124018 | 77 | 170 | 3.0 | 4.0 | 0.00 | 0.00 | 0.00 | 93 | 1016.0 |
| 20260904123525 | 77 | 158 | 4.0 | 7.0 | 0.00 | 0.00 | 0.00 | 93 | 1015.8 |
| 20260904123052 | 77 | 165 | 4.0 | 5.0 | 0.00 | 0.00 | 0.00 | 93 | 1015.8 |
| 20260904122519 | 77 | 159 | 4.0 | 6.0 | 0.00 | 0.00 | 0.00 | 94 | 1015.5 |
| 20260904122026 | 77 | 159 | 4.0 | 5.0 | 0.00 | 0.00 | 0.00 | 94 | 1015.5 |
| 20260904121533 | 77 | 155 | 4.0 | 6.0 | 0.00 | 0.00 | 0.00 | 94 | 1015.4 |
| 20260904121021 | 77 | 184 | 4.0 | 6.0 | 0.00 | 0.00 | 0.00 | 94 | 1015.3 |